Lexington Weather

Lexington, Massachusetts, USA

43°F
11/27/2020 3:58am 
  • Lexington Conditions: Fog, Overcast
  • Temperature: 43.0°F / 6.1°CWarmer 3.1°F than last hour.
  • Dew Point: 42.4°FIncreased 3.2°Fsince last hour.
  • Relative Humidity: 98%Increased 1.0% since last hour.
  • Wind: Calm, 10-min avg: Calm, gust: None
  • Barometer: 29.97 in Steady
  • Visibility: ½ mile
  • Rain Today: 0.00 in
  •   
Southeast Middlesex County - Special Weather Statement - Special Weather Statement
 - SEE ALL NEARBY ALERTS -

Regional Weather Roundup
for Boston / Norton, MA

        
000
ASUS41 KBOX 252104
RWRBOX

REGIONAL WEATHER ROUNDUP
NATIONAL WEATHER SERVICE BOSTON/NORTON MA
400 PM EST WED NOV 25 2020

NOTE:  "FAIR" INDICATES FEW OR NO CLOUDS BELOW 12,000 FEET WITH NO 
SIGNIFICANT WEATHER AND/OR OBSTRUCTIONS TO VISIBILITY.

MAZALL-252200-
EASTERN MASSACHUSETTS
  
CITY           SKY/WX    TMP DP  RH WIND       PRES   REMARKS
BOSTON         NOT AVBL                                               
BEVERLY        CLOUDY    49  43  80 CALM      30.25S                  
LAWRENCE       CLOUDY    40  30  67 NW3       30.28S                  
BEDFORD        CLOUDY    41  30  65 NW5       30.25S                  
BLUE HILL        N/A     50  40  68 SW12      30.23F                  
NORWOOD        CLOUDY    51  39  63 CALM      30.25S                  
MARSHFIELD     CLOUDY    55  48  76 SW6       30.25S                  
PLYMOUTH       CLOUDY    54  47  77 SW8       30.25S                  
TAUNTON        MOCLDY    56  47  71 SW10      30.25S                  
NEW BEDFORD    CLOUDY    56  49  77 S9        30.25S                  
$$

MAZALL-252200-
CAPE COD AND THE ISLANDS
  
CITY           SKY/WX    TMP DP  RH WIND       PRES   REMARKS
FALMOUTH       CLOUDY    54  48  82 S12       30.27F                  
HYANNIS        MOCLDY    53  48  83 S9        30.26F                  
CHATHAM        CLOUDY    52  46  80 VRB7      30.29F                  
PROVINCETOWN   CLOUDY    52  47  83 S12G18    30.28S                  
NANTUCKET      MOCLDY    54  49  83 S13       30.30F                  
MARTHAS VNYRD  CLOUDY    56  50  80 S15G23    30.28F                  
$$
 
MAZALL-252200-
CENTRAL AND WESTERN MASSACHUSETTS
  
CITY           SKY/WX    TMP DP  RH WIND       PRES   REMARKS
WORCESTER      CLOUDY    45  35  68 SW5       30.23S                  
FITCHBURG      MOCLDY    38  26  62 CALM      30.26F                  
ORANGE         CLOUDY    44  35  70 CALM      30.24S                  
SPRINGFIELD    MOCLDY    40  26  55 CALM      30.24S                  
WESTFIELD      CLOUDY    40  28  62 CALM      30.25S                  
NORTH ADAMS    MOCLDY    48  33  56 VRB7      30.20S                  
PITTSFIELD     MOCLDY    46  32  58 SW10      30.18F                  
$$
 
RIZALL-252200-
RHODE ISLAND
  
CITY           SKY/WX    TMP DP  RH WIND       PRES   REMARKS
PROVIDENCE     CLOUDY    56  45  66 SW12      30.25F                  
NEWPORT        LGT RAIN  54  50  86 VRB3      30.25F FOG              
BLOCK ISLAND   LGT RAIN  54  51  90 SW8       30.26F                  
SMITHFIELD     CLOUDY    53  44  71 SW9G16    30.24F                  
WESTERLY       CLOUDY    55  47  74 SW9       30.25F                  
$$
 
CTZALL-252200-
CONNECTICUT
  
CITY           SKY/WX    TMP DP  RH WIND       PRES   REMARKS
BRADLEY INTL   CLOUDY    41  28  60 CALM      30.25S                  
HARTFORD       LGT RAIN  43  32  65 N5        30.25F                  
BRIDGEPORT     CLOUDY    53  43  68 SW7       30.25S                  
DANBURY        CLOUDY    50  36  58 SW8       30.25S                  
GROTON         CLOUDY    54  48  80 SW10      30.25F                  
NEW HAVEN      CLOUDY    54  45  71 SW3       30.25F                  
CHESTER        NOT AVBL                                               
MERIDEN        CLOUDY    52  38  58 S9        30.24F                  
WILLIMANTIC    CLOUDY    53  41  63 SW9       30.25S                  
OXFORD         CLOUDY    49  38  65 SW5       30.24S                  
$$

MEZ002-015-021-024-NHZ003-005-008-011-012-014-VTZ005-008-252200-
NORTHERN NEW ENGLAND
  
CITY           SKY/WX    TMP DP  RH WIND       PRES   REMARKS
PORTLAND ME    CLOUDY    30  27  88 N5        30.30F WCI  25          
BANGOR ME      LGT RAIN  33  31  92 S5        30.29F WCI  29          
CONCORD NH     CLOUDY    34  23  64 CALM      30.27S                  
MANCHESTER NH  CLOUDY    37  23  56 CALM      30.25S                  
NASHUA NH      CLOUDY    35  25  66 N3        30.28S                  
PORTSMOUTH NH  NOT AVBL                                               
JAFFREY NH     CLOUDY    36  26  67 N3        30.23R                  
KEENE NH       CLOUDY    36  27  69 CALM      30.25S                  
BURLINGTON VT  CLOUDY    42  30  62 S16       30.13F                  
MT. WASHINGTON SNOWSHWR  21  21 100 W48G59      N/A  VSB 1/16WCI  -1  
$$

NYZ052-076-252200-
EASTERN NEW YORK
  
CITY           SKY/WX    TMP DP  RH WIND       PRES   REMARKS
ALBANY         CLOUDY    45  33  63 S16       30.19R                  
NEW YORK CITY  CLOUDY    55  39  54 SW7       30.25S                  
$$
 
ANZALL-252200-
MARINE OBSERVATIONS
  
STATION/POSITION TIME  TEMP    WIND        PRES    VSBY  WAVE
                       AIR SEA DIR/SP/G                  HT/PER
                 (UTC) (F)     (DEG/KT/KT) (MB)    (MI)  (FT/S)
BOSTON BUOY      2050   51 50  160/ 14/ 16 1024.8F         4/ 5
BUZZARDS BAY     2000          190/ 20/ 22 1025.6F
NANTUCKET SOUND  2050      51  170/ 14/ 16   N/A           2/ 3
MASS BAY-STELLWA NOT AVBL
ISLE OF SHOALS   2000   48     180/ 22/ 24 1024.2F
S OF BLOCK IS    2026      57                N/A           6/ 5
$$

......................KEY.........................
  SKY/WX - SKY CONDITION/PRESENT WEATHER
  TMP    - TEMPERATURE IN FAHRENHEIT
  DWPT   - DEWPOINT IN FAHRENHEIT
  RH     - RELATIVE HUMIDITY IN PERCENT
  WIND   - DIRECTION AND SPEED IN MPH
  PRES   - MEAN SEA LEVEL PRESSURE IN INCHES OF HG
  WCI    - WIND CHILL INDEX
  VSB    - VISIBILITY IN MILES
  HX     - HEAT INDEX
  TC     - TEMPERATURE IN CELSIUS
  VRB    - VARIABLE WIND DIRECTION
  N/A    - NOT AVAILABLE
  
      

Other recent Regional Weather Roundups

Fri Nov 27, 1:04am

Fri Nov 27, 12:04am

Thu Nov 26, 11:04pm

Thu Nov 26, 10:04pm

Thu Nov 26, 9:04pm

Thu Nov 26, 8:04pm

Thu Nov 26, 7:04pm

Thu Nov 26, 6:04pm

Thu Nov 26, 5:04pm

Thu Nov 26, 4:04pm

Thu Nov 26, 2:04pm

Thu Nov 26, 1:04pm

Thu Nov 26, 12:04pm

Thu Nov 26, 11:04am

Thu Nov 26, 10:04am

Thu Nov 26, 9:04am

Thu Nov 26, 8:04am

Thu Nov 26, 7:04am

Thu Nov 26, 6:04am

Thu Nov 26, 5:04am

Thu Nov 26, 4:04am

Thu Nov 26, 3:04am

Thu Nov 26, 2:04am

Thu Nov 26, 1:04am

Thu Nov 26, 12:04am

Wed Nov 25, 11:04pm

Wed Nov 25, 10:04pm

Wed Nov 25, 9:04pm

Wed Nov 25, 8:04pm

Wed Nov 25, 7:04pm

Wed Nov 25, 6:04pm

Wed Nov 25, 5:04pm

Wed Nov 25, 3:05pm

Wed Nov 25, 2:04pm

Wed Nov 25, 1:04pm

Wed Nov 25, 12:05pm

Wed Nov 25, 11:04am

Wed Nov 25, 10:04am

Wed Nov 25, 9:04am

Wed Nov 25, 8:04am

Wed Nov 25, 7:04am

Wed Nov 25, 6:04am

Wed Nov 25, 5:04am

Wed Nov 25, 4:04am

Wed Nov 25, 3:04am

Wed Nov 25, 2:04am

Wed Nov 25, 1:04am

Wed Nov 25, 12:04am

Tue Nov 24, 11:04pm

Tue Nov 24, 10:04pm

Tue Nov 24, 9:04pm

Tue Nov 24, 8:04pm

Tue Nov 24, 7:04pm

Tue Nov 24, 6:04pm

Tue Nov 24, 5:04pm

Tue Nov 24, 4:05pm

Tue Nov 24, 3:05pm

Tue Nov 24, 2:05pm

Tue Nov 24, 1:05pm

Tue Nov 24, 12:04pm

Tue Nov 24, 11:04am

Tue Nov 24, 10:04am

Tue Nov 24, 9:04am

Tue Nov 24, 8:04am

Tue Nov 24, 7:04am

Tue Nov 24, 6:04am

Tue Nov 24, 5:04am

Tue Nov 24, 4:05am

Tue Nov 24, 3:04am

Tue Nov 24, 2:04am

Tue Nov 24, 1:04am

Tue Nov 24, 12:05am

Mon Nov 23, 11:04pm

Mon Nov 23, 10:04pm

Mon Nov 23, 9:04pm

Mon Nov 23, 8:04pm

Mon Nov 23, 7:04pm

Mon Nov 23, 6:04pm

Mon Nov 23, 5:04pm

Mon Nov 23, 4:04pm

Mon Nov 23, 3:04pm

Mon Nov 23, 2:04pm

Mon Nov 23, 1:04pm

Mon Nov 23, 12:04pm

Mon Nov 23, 11:04am

Mon Nov 23, 10:04am

Mon Nov 23, 9:04am

Mon Nov 23, 8:05am

Mon Nov 23, 7:04am

Mon Nov 23, 6:04am

Mon Nov 23, 5:04am

Mon Nov 23, 4:04am

Mon Nov 23, 3:04am

Mon Nov 23, 2:04am

Mon Nov 23, 1:04am

Mon Nov 23, 12:05am

Sun Nov 22, 11:04pm

Sun Nov 22, 10:04pm

Sun Nov 22, 9:04pm

Sun Nov 22, 8:05pm

Sun Nov 22, 7:04pm

Sun Nov 22, 6:04pm

Sun Nov 22, 5:04pm

Sun Nov 22, 4:04pm

Sun Nov 22, 3:04pm

Sun Nov 22, 2:04pm

Sun Nov 22, 1:05pm

Sun Nov 22, 12:04pm

Sun Nov 22, 11:04am

Sun Nov 22, 10:05am

Sun Nov 22, 9:04am

Sun Nov 22, 8:04am

Sun Nov 22, 7:04am

Sun Nov 22, 6:04am

Sun Nov 22, 5:04am

Sun Nov 22, 4:04am

Sun Nov 22, 3:04am

Sun Nov 22, 2:04am

Sun Nov 22, 1:04am

Sun Nov 22, 12:04am

Sat Nov 21, 11:04pm

Sat Nov 21, 10:04pm

Sat Nov 21, 9:04pm

Sat Nov 21, 8:05pm

Sat Nov 21, 7:04pm

Sat Nov 21, 6:04pm

Sat Nov 21, 5:04pm

Sat Nov 21, 4:05pm

Sat Nov 21, 3:04pm

Sat Nov 21, 2:04pm

Sat Nov 21, 1:05pm

Sat Nov 21, 12:04pm

Sat Nov 21, 11:04am

Sat Nov 21, 10:04am

Sat Nov 21, 9:04am

Sat Nov 21, 8:04am

Sat Nov 21, 7:04am

Sat Nov 21, 6:04am

Sat Nov 21, 5:04am

Sat Nov 21, 4:04am

Sat Nov 21, 3:04am

Sat Nov 21, 2:04am

Sat Nov 21, 1:04am

Sat Nov 21, 12:04am

Fri Nov 20, 11:04pm

Fri Nov 20, 10:04pm

Fri Nov 20, 9:04pm

Fri Nov 20, 8:04pm

Fri Nov 20, 7:04pm

Fri Nov 20, 6:04pm

Fri Nov 20, 5:04pm

Fri Nov 20, 4:05pm

Fri Nov 20, 3:05pm

Fri Nov 20, 2:04pm

Fri Nov 20, 1:04pm

Fri Nov 20, 12:04pm

Fri Nov 20, 11:04am

Fri Nov 20, 10:04am

Fri Nov 20, 9:04am

Fri Nov 20, 8:04am

Fri Nov 20, 7:04am

Fri Nov 20, 6:04am

Fri Nov 20, 5:04am

Fri Nov 20, 4:04am

Meta data:

ID: 2407150e-fcb5-455a-889c-b5ddcaf91a76
Link: https://api.weather.gov/products/2407150e-fcb5-455a-889c-b5ddcaf91a76